Regional Weather Roundup
Issued by NWS Northern Indiana

Home | Current Version | Previous Version | Graphics & Text | Print | Product List | Glossary On
Versions: 1 2 3 4 5 6 7 8 9 10 11 12 13 14 15 16 17 18 19 20 21 22 23 24 25 26 27 28 29 30 31 32 33 34 35 36 37 38 39 40 41 42 43 44 45 46 47 48 49 50
000
ASUS43 KIWX 271400
RWRIWX

KIWX WEATHER ROUNDUP
NATIONAL WEATHER SERVICE NORTHERN INDIANA
1000 AM EDT FRI MAY 27 2016

NOTE: "FAIR" INDICATES FEW OR NO CLOUDS BELOW 12,000 FEET WITH NO
SIGNIFICANT WEATHER AND/OR OBSTRUCTIONS TO VISIBILITY.

* THESE STATIONS ARE NOT UNDER NWS QUALITY CONTROL. THEY ALSO MAY NOT
  REPORT WEATHER SUCH AS PRECIPITATION OR FOG.

INZ001>027-271500-
NORTHERN INDIANA

CITY           SKY/WX    TMP DP  RH WIND       PRES   REMARKS
GARY*          MOSUNNY   73  70  88 S7        29.92S
SOUTH BEND     PTSUNNY   71  64  78 S12       29.95S
ELKHART*       CLOUDY    72  66  83 S8        29.97S
GOSHEN         CLOUDY    72  61  68 S8        29.97S
ANGOLA*          N/A     72  63  73 S7        29.98F
FORT WAYNE     PTSUNNY   73  62  68 SW12      30.00S

$$
INZ028>050-271500-
CENTRAL INDIANA

CITY           SKY/WX    TMP DP  RH WIND       PRES   REMARKS
LAFAYETTE      MOSUNNY   73  64  73 VRB5      29.95F
KOKOMO*        CLOUDY    70  63  78 S8        29.97F
MUNCIE*        CLOUDY    72  63  73 S6        30.01F
INDIANAPOLIS   PTSUNNY   69  65  86 S9        29.98F

$$
MIZ043>046-050>051-056>058-064>065-071>073-077>080-271500-
SOUTHWEST LOWER MICHIGAN

CITY           SKY/WX    TMP DP  RH WIND       PRES   REMARKS
BATTLE CREEK   MOSUNNY   71  65  81 SW8       29.97S
BENTON HARBOR  CLOUDY    72  64  76 S13G18    29.93R
COLDWATER*     CLOUDY    73  64  72 SW8       29.98S
HILLSDALE*     SUNNY     71  62  72 S5        29.99S
HOLLAND        SUNNY     74  67  78 S8        29.93S
GRAND RAPIDS   MOSUNNY   76  67  73 SE7       29.93F
KALAMAZOO      SUNNY     72  63  73 S9        29.96S
STURGIS*       MOSUNNY   72  63  73 S9        29.96F
THREE RIVERS*  FAIR      73  63  69 S12       29.97R

$$
OHZ001>008-015>018-024>025-271500-
NORTHWEST OHIO

CITY           SKY/WX    TMP DP  RH WIND       PRES   REMARKS
DEFIANCE       SUNNY     73  62  68 SW9       30.00S
FINDLAY        SUNNY     75  61  61 SW9       30.01S
TOLEDO EXPRESS MOSUNNY   73  63  70 S7        30.00S
TOLEDO METCALF MOSUNNY   73  62  68 SW9       30.01S
LIMA           SUNNY     73  63  70 SW13      30.02S

$$
AND FOR LAKE MICHIGAN COASTAL AND OPEN LAKE BUOY OBSERVATIONS

STATION/POSITION TEMP    WIND        PRES    VSBY  WAVE
                 AIR SEA DIR/SP/G                  HT/PER
                 (F)     (DEG/KT/KT) (MB)    (MI)  (FT/S)
CALUMET HARBOR    69     190/ 10/ 14 1012.3R
MICHIGAN CITY     68     150/ 11/ 15   N/A
BURNS HARBOR      69     190/ 11/ 15 1013.5F
SAINT JOSEPH      71     170/  6/ 10 1014.6R
SOUTH LAKE BUOY   54 50  150/  8/ 10 1012.0          1/ 3
4 MI NW BRIDGMAN  64 61  160/  8/ 10   N/A           1
MICHIGAN CITY     64 58  180/  8/ 10   N/A           1

$$
&&



USA.gov is the U.S. government's official web portal to all federal, state and local government web resources and services.